Total_Precipitation_Accumulation
0.14 0.21 0.53 0.70 0.73 0.64 0.57 0.49 0.45 0.45 0.43 0.39 0.38 0.37 0.34 0.34 0.32 0.32 0.34 0.37 0.42 0.52 0.62 0.68 0.70 0.78 0.72 0.54 0.38 0.27 0.26 0.27 0.21 0.20 0.19 0.24 0.29 0.32 0.28 0.27 0.29 0.36 0.47
0.15 0.24 0.51 0.73 0.83 0.78 0.67 0.58 0.49 0.45 0.43 0.44 0.46 0.48 0.45 0.39 0.39 0.41 0.44 0.47 0.53 0.64 0.73 0.75 0.72 0.74 0.67 0.52 0.34 0.21 0.15 0.12 0.08 0.06 0.05 0.09 0.19 0.27 0.24 0.23 0.25 0.37 0.44
0.18 0.27 0.50 0.74 0.88 0.87 0.80 0.70 0.61 0.57 0.53 0.54 0.58 0.61 0.59 0.55 0.53 0.54 0.57 0.59 0.64 0.68 0.71 0.75 0.70 0.66 0.58 0.47 0.32 0.22 0.14 0.10 0.07 0.05 0.06 0.10 0.21 0.30 0.27 0.26 0.32 0.42 0.45
0.23 0.32 0.49 0.75 0.95 0.96 0.91 0.81 0.74 0.78 0.72 0.68 0.70 0.73 0.72 0.71 0.67 0.66 0.66 0.67 0.67 0.66 0.64 0.63 0.53 0.48 0.38 0.33 0.28 0.23 0.17 0.13 0.08 0.08 0.12 0.14 0.23 0.42 0.41 0.38 0.40 0.42 0.44
0.36 0.45 0.64 0.86 1.04 1.08 0.97 0.95 0.91 0.94 0.93 0.88 0.83 0.84 0.86 0.83 0.77 0.72 0.68 0.69 0.65 0.61 0.54 0.50 0.41 0.31 0.26 0.23 0.22 0.22 0.17 0.12 0.09 0.10 0.13 0.16 0.26 0.50 0.45 0.42 0.38 0.36 0.42
0.51 0.59 0.80 0.99 1.14 1.18 1.06 1.02 1.03 1.05 1.08 1.05 0.95 0.90 0.93 0.93 0.84 0.72 0.68 0.63 0.56 0.52 0.49 0.42 0.35 0.27 0.23 0.23 0.21 0.20 0.17 0.11 0.08 0.10 0.13 0.17 0.24 0.44 0.39 0.36 0.36 0.37 0.40
0.73 0.81 0.96 1.20 1.40 1.43 1.33 1.24 1.18 1.15 1.16 1.18 1.08 0.98 1.00 1.04 1.02 0.83 0.69 0.58 0.50 0.46 0.43 0.38 0.32 0.28 0.24 0.24 0.25 0.20 0.15 0.10 0.09 0.10 0.12 0.17 0.29 0.47 0.43 0.38 0.37 0.38 0.40
0.93 1.02 1.20 1.45 1.57 1.66 1.57 1.46 1.40 1.35 1.26 1.22 1.22 1.16 1.11 1.14 1.14 0.95 0.71 0.59 0.54 0.49 0.43 0.40 0.37 0.30 0.27 0.25 0.24 0.19 0.14 0.09 0.08 0.09 0.10 0.15 0.30 0.46 0.45 0.43 0.39 0.37 0.38
1.22 1.35 1.43 1.56 1.69 1.86 1.72 1.54 1.52 1.49 1.41 1.34 1.30 1.25 1.16 1.15 1.10 0.94 0.72 0.62 0.59 0.55 0.48 0.43 0.42 0.37 0.31 0.28 0.24 0.19 0.13 0.09 0.07 0.09 0.09 0.13 0.25 0.41 0.45 0.47 0.45 0.42 0.40
1.54 1.68 1.68 1.70 1.76 1.95 1.92 1.66 1.49 1.39 1.38 1.40 1.33 1.15 0.95 0.94 0.98 0.91 0.65 0.59 0.60 0.55 0.48 0.45 0.43 0.42 0.35 0.26 0.22 0.18 0.14 0.14 0.10 0.09 0.10 0.14 0.25 0.39 0.42 0.47 0.48 0.47 0.44
1.91 1.96 1.97 1.90 1.84 1.93 1.98 1.76 1.66 1.51 1.42 1.40 1.35 1.11 0.94 0.95 0.94 0.85 0.62 0.46 0.52 0.52 0.49 0.49 0.50 0.46 0.36 0.27 0.21 0.16 0.14 0.15 0.13 0.12 0.12 0.19 0.31 0.41 0.44 0.47 0.47 0.47 0.44
2.02 2.10 2.18 2.08 2.03 2.06 2.06 1.94 1.89 1.74 1.58 1.47 1.33 1.20 1.09 1.00 0.99 0.87 0.75 0.52 0.49 0.50 0.51 0.55 0.52 0.52 0.41 0.30 0.23 0.20 0.16 0.15 0.16 0.14 0.15 0.24 0.38 0.46 0.47 0.45 0.44 0.47 0.47
2.19 2.28 2.37 2.28 2.27 2.24 2.17 2.03 1.91 1.77 1.70 1.64 1.54 1.33 1.24 1.18 1.08 1.06 0.93 0.79 0.69 0.55 0.55 0.53 0.54 0.48 0.40 0.34 0.30 0.24 0.21 0.21 0.19 0.16 0.18 0.25 0.37 0.48 0.52 0.53 0.50 0.49 0.54
2.47 2.59 2.60 2.55 2.53 2.46 2.35 2.15 1.92 1.73 1.62 1.59 1.55 1.51 1.41 1.31 1.18 1.08 0.98 0.84 0.77 0.62 0.56 0.53 0.48 0.43 0.39 0.39 0.39 0.33 0.27 0.23 0.20 0.19 0.19 0.20 0.28 0.44 0.53 0.56 0.59 0.60 0.62
2.74 2.80 2.86 2.81 2.69 2.54 2.50 2.39 2.04 1.75 1.54 1.50 1.54 1.53 1.49 1.33 1.17 1.10 1.02 0.97 0.87 0.72 0.64 0.59 0.54 0.47 0.42 0.42 0.40 0.34 0.31 0.27 0.24 0.24 0.22 0.19 0.20 0.33 0.49 0.55 0.59 0.66 0.71
2.94 3.05 3.16 3.06 2.89 2.61 2.43 2.41 2.21 1.91 1.67 1.56 1.49 1.46 1.53 1.47 1.32 1.26 1.07 1.03 0.98 0.88 0.80 0.74 0.66 0.62 0.55 0.52 0.46 0.40 0.38 0.34 0.32 0.34 0.31 0.25 0.21 0.23 0.36 0.55 0.74 0.83 0.88
3.03 3.25 3.33 3.33 3.17 2.82 2.54 2.47 2.31 2.10 1.91 1.72 1.44 1.37 1.41 1.50 1.55 1.54 1.28 1.13 1.05 1.01 0.99 0.93 0.85 0.81 0.71 0.61 0.53 0.50 0.44 0.38 0.33 0.33 0.32 0.30 0.26 0.23 0.25 0.42 0.65 0.80 0.90
3.09 3.28 3.37 3.40 3.34 3.11 2.77 2.62 2.49 2.25 2.09 1.93 1.68 1.50 1.40 1.45 1.60 1.73 1.47 1.27 1.17 1.15 1.10 1.00 0.91 0.87 0.77 0.70 0.61 0.54 0.48 0.42 0.37 0.33 0.32 0.29 0.28 0.24 0.22 0.26 0.40 0.59 0.73
2.92 3.17 3.45 3.43 3.35 3.26 3.10 2.96 2.82 2.61 2.36 2.14 1.85 1.63 1.58 1.57 1.64 1.80 1.55 1.34 1.30 1.26 1.15 1.10 1.02 0.94 0.85 0.77 0.71 0.64 0.57 0.50 0.43 0.39 0.34 0.30 0.28 0.26 0.23 0.23 0.25 0.33 0.46
2.73 3.03 3.23 3.54 3.53 3.56 3.53 3.37 3.20 3.05 2.76 2.46 2.09 1.78 1.69 1.68 1.67 1.82 1.73 1.50 1.46 1.40 1.26 1.14 1.10 1.10 1.07 0.97 0.89 0.80 0.70 0.62 0.55 0.47 0.41 0.35 0.29 0.26 0.26 0.25 0.25 0.26 0.32
2.48 2.79 2.94 3.19 3.46 3.54 3.46 3.20 3.01 2.89 2.90 2.76 2.43 2.11 1.99 1.86 1.75 1.80 1.86 1.72 1.55 1.47 1.38 1.28 1.19 1.15 1.18 1.24 1.21 1.06 0.91 0.79 0.66 0.56 0.49 0.43 0.36 0.32 0.31 0.32 0.32 0.32 0.33
2.19 2.37 2.69 2.81 3.15 3.25 3.13 3.09 2.98 2.97 2.98 2.93 2.78 2.50 2.29 2.12 1.95 1.86 1.85 1.83 1.69 1.56 1.53 1.54 1.43 1.32 1.24 1.24 1.30 1.29 1.16 1.07 0.85 0.64 0.57 0.54 0.48 0.46 0.43 0.40 0.39 0.40 0.41
1.93 2.20 2.32 2.47 2.74 3.05 3.14 3.28 3.37 3.35 3.16 2.97 2.86 2.78 2.54 2.39 2.23 2.01 1.91 1.93 1.87 1.69 1.54 1.57 1.62 1.57 1.52 1.48 1.39 1.49 1.39 1.14 0.94 0.76 0.63 0.59 0.57 0.56 0.53 0.50 0.46 0.47 0.47
1.57 1.96 2.26 2.47 2.63 2.84 3.21 3.23 3.11 2.95 2.78 2.57 2.61 2.74 2.73 2.58 2.44 2.22 2.11 2.11 2.02 1.86 1.68 1.64 1.67 1.75 1.77 1.72 1.63 1.48 1.36 1.18 1.13 0.96 0.73 0.64 0.61 0.57 0.56 0.55 0.51 0.47 0.47
1.30 1.68 2.04 2.29 2.61 2.85 2.98 3.05 3.09 2.84 2.63 2.62 2.61 2.67 2.63 2.53 2.47 2.36 2.23 2.27 2.18 2.04 1.94 1.89 1.83 1.87 1.88 1.82 1.73 1.61 1.54 1.37 1.22 1.17 0.96 0.76 0.74 0.68 0.60 0.57 0.56 0.57 0.59
1.15 1.37 1.75 2.02 2.17 2.47 2.77 2.83 2.86 2.83 2.74 2.70 2.55 2.50 2.56 2.54 2.49 2.41 2.38 2.34 2.30 2.23 2.12 2.05 2.00 2.01 2.00 1.95 1.88 1.72 1.63 1.55 1.38 1.35 1.23 0.99 0.94 0.86 0.77 0.69 0.66 0.65 0.67